Regional Weather Roundup
Issued by NWS

Home | Current Version | Previous Version | Graphics & Text | Print | Product List | Glossary On
Versions: 1 2 3 4 5 6 7 8 9 10 11 12 13 14 15 16 17 18 19 20 21 22 23 24 25 26 27 28 29 30 31 32 33 34 35 36 37 38 39 40 41 42 43 44 45 46 47 48 49 50
000
ASUS43 KBIS 231910
RWRND
NORTH DAKOTA REGIONAL WEATHER ROUNDUP
NATIONAL WEATHER SERVICE EASTERN NORTH DAKOTA/GRAND FORKS ND
200 PM CDT WED MAY 23 2018

  NOTE: "FAIR" INDICATES FEW OR NO CLOUDS BELOW 12,000 FEET WITH NO
  SIGNIFICANT WEATHER AND/OR OBSTRUCTIONS TO VISIBILITY.

NDZ001>003-009>011-017-232000-
...NORTHWEST NORTH DAKOTA...

CITY           SKY/WX    TMP DP  RH WIND       PRES   REMARKS
WILLISTON      PTSUNNY   74  62  66 SE12      29.86F
MINOT          CLOUDY    79  57  46 SE17G24   29.90F
MINOT AFB      FAIR      76  55  47 E13       29.88F
$$

NDZ018>021-031>035-040>046-232000-
...SOUTHWEST NORTH DAKOTA...

CITY           SKY/WX    TMP DP  RH WIND       PRES   REMARKS
BISMARCK       FAIR      79  60  52 SE15      29.90F
DICKINSON      CLOUDY    70  57  63 SE15      29.89F
GARRISON         N/A     72  66  81 E8        29.90F
HETTINGER      CLOUDY    67  59  75 E10       29.91F
$$

NDZ004>008-012>016-024-026-027-054-232000-
...NORTHEAST NORTH DAKOTA...

CITY           SKY/WX    TMP DP  RH WIND       PRES   REMARKS
GRAND FORKS    PTSUNNY   85  59  41 SE22      29.96F
GRAND FORKS AF FAIR      84  60  43 SE15G23   29.96F
DEVILS LAKE    FAIR      78  58  49 SE17G23   29.96F
$$

NDZ022-023-025-028>030-036>039-047>053-232000-
...SOUTHEAST NORTH DAKOTA...

CITY           SKY/WX    TMP DP  RH WIND       PRES   REMARKS
JAMESTOWN      FAIR      76  62  62 SE17G28   29.96S
FARGO          FAIR      80  63  55 SE20G30   29.97F
WAHPETON       FAIR      70  61  73 SE20G30   29.99F
$$




USA.gov is the U.S. government's official web portal to all federal, state and local government web resources and services.